GFSMA_850_dewp_096.txt.gz
Dewpoint
10 10 11 11 9 9 9 9 9 11 10 10 10 10 10 9 8 7 8 8 7 8 8 8 7 7 6 2 -6 -10 -5 -12 -12 -12 -12 -11 -11 -10 -10 -10 -10 -11 -10
12 11 11 11 9 9 9 9 9 11 10 10 10 9 9 9 8 7 7 7 8 8 8 7 7 7 5 1 -7 -11 -10 -9 -10 -11 -10 -10 -10 -9 -8 -8 -8 -8 -7
12 11 10 10 9 9 8 9 9 10 10 10 10 10 9 7 7 7 7 8 8 7 7 7 7 5 4 -2 -8 -10 -10 -10 -9 -10 -10 -9 -9 -8 -7 -7 -6 -6 -5
10 10 10 11 10 9 9 9 9 10 10 10 10 9 8 7 7 7 7 7 8 8 7 7 7 7 7 -3 -7 -8 -8 -8 -9 -9 -8 -8 -7 -6 -5 -5 -4 -4 -3
10 10 11 11 10 10 9 7 8 10 10 10 9 9 8 8 8 8 8 7 8 8 8 7 7 7 7 1 -4 -5 -3 -6 -7 -6 -6 -6 -5 -4 -3 -2 -2 -2 -2
11 10 10 11 10 10 10 9 9 9 9 9 9 9 8 9 9 9 8 8 7 7 8 7 7 6 5 1 -3 -2 -0 -2 -4 -4 -4 -3 -2 -1 -1 -0 -0 -1 -1
11 10 10 10 10 10 10 9 10 10 9 9 9 9 9 9 9 9 8 8 7 7 7 7 7 6 4 -2 -3 -4 -2 -0 -1 -1 -1 -1 -0 0 1 1 1 1 1
10 10 10 10 10 10 10 9 9 9 9 9 9 9 8 8 9 8 8 7 6 6 7 7 7 7 7 5 -3 -3 -2 -1 2 1 0 0 0 1 1 1 2 2 2
10 10 10 10 10 10 10 8 9 9 9 9 8 7 8 7 8 9 8 9 7 7 6 7 7 7 7 6 1 -2 -2 -2 -1 1 3 3 3 3 3 2 3 4 4
10 10 10 10 10 10 9 8 10 10 9 9 9 8 7 6 7 8 9 8 8 7 1 6 7 7 3 0 -1 -2 -3 -3 -2 -1 0 5 7 6 6 6 6 6 6
11 10 7 10 10 10 10 10 10 10 9 9 8 8 8 8 7 6 7 8 8 6 2 0 4 -1 -2 -1 -1 -1 -0 0 1 2 4 4 5 6 6 6 6 6 6
10 10 9 8 9 9 8 9 9 9 8 8 7 8 8 8 7 6 3 6 5 6 3 2 1 1 0 1 1 1 3 2 3 4 4 5 5 6 6 6 6 6 5
9 10 10 10 9 9 10 9 6 8 9 5 7 7 8 8 6 5 4 3 6 6 5 2 2 2 3 3 2 1 1 1 2 4 4 5 5 5 5 5 5 5 6
10 9 10 10 9 7 8 9 7 7 6 6 6 5 7 8 7 7 6 4 3 3 5 5 1 1 2 2 2 3 3 3 3 4 4 4 4 4 4 4 5 5 5
9 10 10 10 10 8 9 9 8 6 4 4 4 6 7 7 7 7 7 5 3 5 4 5 6 3 3 3 3 3 3 3 4 4 4 4 4 4 5 5 4 5 5
9 10 8 9 10 10 9 9 9 9 7 5 2 5 8 7 6 6 5 6 4 6 7 5 5 6 6 5 4 3 3 3 4 4 4 4 5 5 5 5 5 5 5
9 9 9 9 10 10 9 9 9 9 8 6 1 5 3 6 3 6 5 3 2 4 6 6 6 5 5 6 7 5 3 3 3 3 4 4 4 5 5 5 5 5 5
10 9 9 9 9 9 9 9 9 9 8 6 6 1 1 -1 5 4 3 3 3 4 5 6 6 6 5 6 4 4 4 5 5 5 3 3 3 4 3 4 4 3 4
9 9 9 8 9 9 9 9 9 9 8 7 6 2 3 2 3 5 5 6 4 4 5 7 7 7 7 6 7 7 7 8 7 5 4 3 3 3 3 2 2 2 2
8 8 8 9 9 9 9 9 9 9 8 7 4 4 6 6 5 7 6 6 8 8 8 8 8 8 8 7 7 7 8 7 7 7 7 6 5 5 5 4 3 3 4
8 8 7 8 8 8 8 9 9 9 8 8 8 8 8 8 7 7 8 8 8 8 8 8 8 8 8 8 7 7 8 7 7 7 7 7 8 8 7 7 6 6 6
8 8 8 8 8 8 8 7 8 7 7 7 7 7 7 7 7 7 7 7 7 8 8 8 8 8 8 8 8 8 8 8 8 8 8 7 7 7 8 7 8 7 6
9 9 8 8 8 9 9 8 8 8 8 8 8 8 8 8 8 8 8 9 9 8 8 8 8 8 8 8 8 8 8 8 8 7 7 7 7 7 7 7 7 7 7
8 8 8 8 8 8 8 9 9 9 9 9 8 8 8 8 8 8 8 8 8 8 8 8 7 7 7 7 7 7 7 7 7 7 7 7 6 6 6 6 5 6 6
7 7 7 7 7 7 8 8 8 8 8 8 8 8 8 8 8 8 8 7 7 7 7 7 7 7 7 7 7 6 6 5 6 5 5 4 5 4 2 1 1 0 -1
5 5 5 5 5 5 5 6 6 6 7 7 7 7 7 7 7 7 7 7 7 6 6 5 5 5 5 5 4 4 3 3 3 2 2 1 1 0 -1 -2 -3 -4 -5

GFSMA_850_dewp_099.txt.gz
Dewpoint
12 11 12 12 11 11 11 10 9 10 8 10 10 9 10 8 8 8 8 7 8 8 8 7 6 7 7 4 -5 -8 -11 -13 -13 -11 -11 -12 -11 -11 -11 -11 -11 -12 -12
11 11 11 11 11 11 10 9 10 9 9 10 10 10 9 8 8 7 9 8 8 8 8 8 8 7 6 3 -6 -11 -12 -10 -12 -11 -11 -11 -10 -9 -9 -9 -9 -9 -8
11 11 11 11 11 11 10 9 9 8 10 10 9 10 9 8 7 7 8 8 7 7 8 7 7 7 8 7 -3 -10 -11 -10 -10 -9 -10 -10 -9 -9 -8 -8 -8 -7 -6
12 11 11 12 11 11 10 9 8 9 10 10 9 8 8 7 7 7 7 8 8 8 7 7 7 7 7 7 1 -8 -9 -8 -8 -9 -9 -9 -9 -8 -7 -7 -6 -5 -4
11 11 11 11 11 10 9 9 9 9 10 9 9 8 7 6 6 6 7 7 7 7 7 7 7 7 7 7 1 -6 -7 -8 -8 -8 -8 -8 -7 -6 -5 -4 -4 -3 -3
10 10 11 11 11 11 9 9 8 9 10 9 8 7 7 7 6 7 7 7 7 8 8 8 7 7 7 7 3 -3 -0 -2 -7 -6 -6 -5 -4 -3 -2 -1 -1 -2 -2
9 9 11 10 11 10 10 8 9 10 9 9 8 8 8 8 8 7 7 7 7 7 7 8 8 7 4 -0 1 -4 -2 1 -4 -4 -3 -3 -1 -1 -0 0 0 0 0
9 9 10 10 11 10 10 9 7 7 8 8 8 8 9 8 8 8 8 7 7 6 7 7 7 7 6 5 -3 -4 -4 -1 0 -1 -1 -1 -0 0 1 1 1 1 1
10 10 10 11 9 10 10 10 7 8 9 9 9 8 8 7 8 8 8 8 7 6 6 6 7 7 7 7 6 -1 -3 -2 -2 -1 -1 -1 0 0 0 1 1 2 2
9 10 10 10 10 10 10 10 10 9 9 9 9 8 7 5 7 9 8 8 7 7 6 6 6 7 7 7 7 5 -2 -2 -2 -1 -1 -1 -1 2 4 4 5 5 5
10 10 8 10 10 10 10 10 10 9 8 8 8 8 7 6 6 6 7 8 8 8 7 7 6 7 6 7 6 2 -2 -3 -2 -2 -2 -2 -0 2 3 5 5 6 6
10 10 9 10 10 10 10 10 8 8 8 9 8 7 7 8 8 7 6 6 7 7 8 8 5 4 4 1 -0 -2 -3 -3 -0 1 2 2 3 4 4 5 5 5 5
10 11 9 9 9 9 10 9 9 9 9 9 8 8 8 6 6 6 3 3 6 6 8 8 7 1 0 -2 0 1 1 1 2 2 3 2 4 4 5 5 5 5 5
10 10 10 8 10 8 9 9 9 9 9 9 8 8 7 4 5 7 6 5 4 5 6 7 4 1 1 1 2 2 2 2 2 2 3 2 2 4 5 5 5 5 5
10 10 10 10 8 9 9 9 9 9 7 6 5 6 4 7 7 7 7 6 5 4 3 3 6 6 5 6 5 2 2 3 3 3 3 3 3 4 4 4 4 4 5
9 10 9 10 10 9 8 8 9 9 8 8 7 8 6 6 5 6 7 8 7 6 5 3 4 5 6 6 5 4 3 3 3 3 3 2 3 4 4 4 4 4 4
9 9 10 10 10 10 9 8 8 9 9 7 7 7 6 7 7 5 5 6 6 6 6 5 5 5 6 7 7 7 7 6 5 5 4 3 3 3 3 4 4 4 4
9 9 10 9 9 10 10 9 9 9 9 8 8 8 7 5 4 6 8 7 6 5 5 5 5 1 2 2 4 4 4 5 6 6 5 3 3 4 3 3 3 3 3
9 9 9 8 9 10 9 9 9 9 9 9 9 9 6 6 2 2 5 5 5 5 4 4 3 3 3 2 4 6 7 7 6 5 5 5 5 4 4 3 4 4 3
9 9 9 9 8 9 9 9 9 9 9 9 8 8 7 8 5 5 4 2 5 5 4 5 5 6 7 7 8 8 8 8 8 8 8 8 7 7 7 7 7 7 7
10 10 9 9 9 9 9 8 9 9 9 9 8 8 8 7 4 2 3 5 5 6 8 8 8 9 8 8 8 8 9 8 8 8 8 8 8 8 9 8 8 8 8
8 8 8 8 9 9 9 9 9 9 9 9 9 9 8 8 8 8 8 8 7 8 8 8 8 8 8 9 9 9 9 9 9 8 8 8 8 8 8 7 7 7 8
8 8 8 8 8 8 7 8 8 8 8 9 8 8 9 9 9 9 9 9 8 8 8 8 8 8 8 8 8 8 8 8 8 8 8 8 8 8 8 8 8 8 7
9 8 8 8 8 8 9 9 8 8 8 8 8 9 9 9 9 8 8 8 8 8 8 8 8 7 7 7 7 7 7 7 7 7 6 5 5 5 6 6 6 6 6
5 6 7 7 6 7 8 8 8 8 8 8 8 8 8 8 8 8 8 7 7 7 7 7 6 6 6 6 6 6 5 5 4 4 3 3 3 2 3 1 1 1 -0
1 2 3 3 3 4 4 5 6 6 6 6 5 5 6 5 5 6 7 6 6 5 5 5 4 4 3 3 2 2 2 2 1 1 1 -0 0 -1 -1 -1 -2 -3 -4

GFSMA_850_dewp_105.txt.gz
Dewpoint
10 11 12 13 12 12 10 10 9 9 9 9 8 7 9 10 10 10 10 9 8 7 5 -1 1 2 8 8 8 4 -3 -7 -8 -13 -14 -13 -14 -14 -14 -13 -13 -13 -12
11 12 12 12 12 12 11 10 10 10 10 9 9 7 8 10 9 10 10 8 7 7 4 4 7 8 8 8 8 4 -2 -11 -11 -11 -12 -12 -12 -12 -12 -11 -11 -11 -10
11 12 12 12 11 11 12 11 11 11 11 10 9 8 9 10 10 10 9 8 7 7 5 7 7 8 8 8 6 1 -6 -12 -13 -13 -11 -11 -10 -10 -10 -10 -10 -9 -8
11 11 11 11 11 11 11 11 10 10 10 9 9 8 8 10 9 9 9 8 7 7 5 6 7 7 7 3 1 -2 -10 -12 -12 -12 -12 -10 -10 -9 -9 -9 -8 -8 -6
10 11 11 11 10 10 10 10 10 10 9 9 9 8 9 10 8 8 8 7 6 5 5 7 7 7 7 6 2 -6 -8 -11 -11 -11 -10 -10 -9 -9 -8 -8 -7 -6 -4
10 11 11 11 10 10 10 10 11 10 9 9 9 8 9 9 8 7 6 6 5 4 5 7 7 7 7 7 6 1 -4 -6 -9 -10 -9 -9 -9 -8 -7 -6 -5 -3 -3
8 9 9 10 10 11 12 11 10 10 10 9 10 10 10 9 8 7 7 6 5 5 3 5 7 7 7 6 7 -1 -1 -2 -8 -9 -8 -8 -7 -7 -6 -4 -3 -1 -1
9 8 7 8 10 10 11 11 10 11 10 9 10 10 10 9 7 7 7 7 7 7 6 6 4 6 6 5 3 -3 -8 -7 2 1 -6 -6 -5 -5 -4 -3 -2 -1 0
10 10 8 9 9 9 9 10 10 11 10 9 10 9 8 8 7 8 8 8 7 8 7 6 6 5 3 3 2 1 -2 -5 -5 -4 -3 -4 -3 -2 -2 -1 0 0 1
10 10 10 10 9 9 9 10 11 11 10 9 10 8 7 7 7 7 7 7 8 7 7 6 6 6 3 2 3 5 6 4 -3 -4 -3 -1 -2 -2 -1 -1 -0 0 1
12 11 11 10 10 10 9 9 10 11 10 9 10 9 8 7 6 6 6 6 6 7 7 7 6 6 6 4 4 6 6 6 1 -3 -3 -2 -2 -2 -2 -1 0 1 1
11 11 11 10 10 10 10 10 10 11 10 10 10 9 8 7 7 5 5 5 4 6 7 8 7 7 7 6 6 6 5 5 4 1 -1 -2 -1 -2 -2 -2 -1 1 2
11 10 9 9 10 10 10 10 10 10 10 10 10 9 8 7 6 5 5 4 5 5 6 7 6 6 6 7 6 5 3 1 0 -1 -2 -2 -3 -2 -1 1 2 2 3
10 10 7 9 9 9 9 10 10 10 10 10 10 9 9 8 7 8 7 7 7 6 6 5 5 5 5 5 0 -1 -2 -4 -3 -1 -1 -1 -2 -0 2 2 3 3 3
9 7 9 9 9 8 9 9 10 10 10 10 10 9 9 8 7 9 8 6 5 6 7 7 7 6 4 3 2 2 0 -0 -1 -0 1 2 2 2 2 3 3 3 3
8 8 9 9 9 7 9 9 10 10 10 10 9 9 9 9 8 8 7 7 5 5 6 6 6 5 5 4 4 4 5 5 5 4 3 3 3 2 2 3 3 3 4
8 9 9 10 9 8 8 9 10 10 10 10 9 9 8 8 8 8 7 5 3 3 6 4 7 6 7 7 6 6 6 6 6 6 5 5 5 4 4 4 4 4 5
8 10 9 9 9 8 8 9 9 9 9 9 8 8 8 8 9 7 7 5 5 4 5 6 6 6 6 6 6 6 6 6 6 6 4 3 3 3 4 5 6 7 7
9 9 10 10 10 10 8 8 9 8 8 8 8 8 8 8 8 8 7 7 6 5 6 6 4 5 3 4 5 4 1 2 4 5 6 7 7 8 8 8 8 8 7
9 9 9 10 10 9 10 9 9 9 8 8 8 8 9 9 8 8 7 8 7 7 7 7 6 6 6 5 5 4 4 7 7 8 8 8 9 9 9 9 9 9 8
9 9 8 8 9 9 9 9 9 9 9 9 9 9 9 9 9 9 8 8 8 7 7 7 7 6 5 6 5 7 8 8 9 9 9 9 9 9 8 8 6 6 8
9 9 9 9 8 9 9 9 9 9 9 9 9 9 9 9 8 8 8 8 8 8 7 5 5 5 4 7 8 9 9 8 8 7 7 7 7 8 8 7 7 7 7
9 9 9 9 9 9 9 9 9 9 9 9 8 8 8 8 8 8 8 8 8 8 8 8 6 6 8 8 8 8 8 8 8 8 7 7 6 6 6 5 5 5 4
8 9 8 8 7 8 9 9 9 9 9 9 8 8 8 9 9 8 8 8 8 8 8 8 8 7 7 7 7 7 7 7 6 6 5 5 5 4 3 3 2 1 1
4 6 5 5 6 7 8 8 8 8 8 8 8 8 8 8 8 8 8 8 8 7 7 7 6 6 5 6 6 6 5 4 4 4 3 3 2 1 0 0 -1 -1 -2
1 1 1 2 1 3 4 5 5 6 7 7 6 7 7 7 7 7 5 6 6 5 4 4 3 2 2 1 2 2 1 1 1 1 0 0 -1 -1 -2 -2 -3 -4 -4

GFSMA_850_dewp_108.txt.gz
Dewpoint
10 10 11 12 11 11 11 10 9 9 9 8 8 9 9 9 8 8 10 10 9 8 7 4 -1 2 4 7 8 4 -1 -1 -2 -8 -11 -13 -15 -14 -15 -15 -14 -14 -12
9 10 11 11 12 11 11 11 10 9 9 9 9 9 9 9 8 9 10 10 9 7 6 4 1 8 6 8 8 4 0 -2 -4 -11 -13 -13 -14 -13 -13 -13 -13 -12 -11
10 10 10 11 11 11 11 11 11 10 9 10 10 9 8 9 9 9 10 10 8 7 7 5 3 8 8 8 6 4 1 -4 -4 -6 -11 -12 -12 -11 -11 -11 -11 -11 -10
11 11 11 11 11 11 11 11 11 11 11 10 11 10 9 8 9 9 10 10 8 7 7 6 7 9 8 8 8 5 -2 -9 -3 -3 -7 -11 -11 -11 -10 -10 -9 -9 -8
10 11 11 11 11 11 11 11 11 10 10 10 9 10 10 9 9 9 10 9 7 7 6 5 7 7 8 8 7 5 -2 -8 -10 -7 -10 -11 -10 -10 -9 -9 -8 -8 -7
9 10 11 11 11 11 11 10 10 10 10 9 9 9 9 9 9 9 10 8 7 6 5 4 7 7 7 8 7 5 3 -2 -7 -9 -9 -10 -10 -9 -9 -8 -7 -6 -5
8 9 10 11 12 11 11 11 11 10 11 10 10 9 10 10 9 9 9 8 6 6 5 5 6 7 7 8 7 4 4 -3 -3 -5 -8 -9 -9 -9 -8 -7 -6 -4 -2
9 9 9 11 12 12 12 11 11 11 11 10 10 10 10 10 10 9 9 7 6 4 4 5 6 6 7 7 7 6 1 -1 1 0 -8 -8 -8 -7 -7 -6 -4 -2 -1
12 10 9 9 9 11 11 11 11 11 11 10 10 10 10 9 9 10 8 8 7 6 6 5 5 4 6 6 5 4 -0 -6 -6 -3 -6 -7 -7 -6 -5 -4 -2 -1 0
11 11 11 9 8 8 9 10 10 11 11 10 10 10 10 9 9 9 9 8 7 7 7 6 6 6 5 5 4 4 -0 -2 -2 -2 -2 -2 -3 -4 -3 -2 -1 -1 -0
12 11 12 11 9 9 9 9 11 10 11 9 10 10 10 8 8 7 9 9 8 7 7 7 6 6 6 6 3 2 3 5 6 5 -1 -3 -1 -1 -1 -1 -1 -0 0
10 11 12 11 11 11 9 10 11 11 9 9 10 10 10 8 7 6 7 8 8 7 7 7 6 7 6 6 6 4 4 5 5 5 3 -1 -2 -1 -1 -0 0 0 0
11 11 11 12 11 11 10 10 10 10 10 10 10 10 10 7 7 5 6 7 7 7 7 7 7 7 7 7 6 6 5 5 5 4 4 3 0 -1 -2 -2 -2 -2 -0
10 11 12 12 11 11 9 10 9 10 10 10 10 10 10 8 7 6 6 5 6 6 6 6 7 7 6 6 6 6 5 4 3 0 1 1 0 -0 -1 -2 -1 1 2
11 10 10 11 10 9 9 10 9 9 10 10 9 10 9 9 7 7 7 6 6 5 6 5 6 5 5 4 4 5 4 2 1 -0 -1 -1 -0 1 2 2 1 1 2
11 11 10 10 7 9 9 9 10 10 10 10 10 10 10 9 8 8 7 8 8 7 5 5 4 5 6 6 5 5 5 4 4 3 4 4 3 3 4 3 3 4 4
11 11 10 7 9 9 9 9 9 9 10 10 10 10 10 9 9 8 9 9 7 6 5 5 6 6 6 6 5 5 4 5 6 6 5 4 5 5 4 4 4 5 4
10 10 10 6 9 10 8 10 10 9 10 10 10 10 10 9 9 8 7 7 8 6 5 5 4 4 5 6 7 6 5 5 5 5 5 6 6 5 5 6 6 5 6
10 10 8 8 9 9 9 9 10 9 10 10 10 10 9 9 9 9 7 7 8 8 8 6 5 5 5 7 7 5 4 4 6 5 5 5 5 6 7 7 8 8 8
10 8 8 9 9 9 9 9 9 10 9 9 9 10 9 8 8 8 7 8 8 8 7 6 5 5 6 6 5 5 6 5 4 5 6 8 8 8 8 8 8 8 9
9 8 8 8 9 9 9 9 9 9 9 9 8 8 8 8 9 9 9 9 9 8 8 8 7 7 7 7 7 5 4 4 6 8 8 9 8 8 8 8 8 7 8
10 8 9 9 9 9 9 9 9 9 9 9 9 9 9 9 9 9 9 9 8 8 8 8 8 8 7 7 6 5 4 6 8 8 7 8 7 7 7 7 7 7 6
9 10 9 9 9 8 8 9 9 9 9 9 9 9 9 9 9 9 9 8 8 8 8 7 8 7 6 5 5 5 7 8 8 7 7 7 7 5 5 6 5 4 4
9 9 9 9 9 9 8 8 8 8 8 8 8 9 9 8 8 8 8 8 8 8 8 8 8 7 7 7 7 8 7 7 7 7 6 5 4 3 3 2 2 2 1
3 2 5 6 8 8 8 8 8 8 8 8 8 8 8 8 8 8 8 8 8 8 8 8 8 7 8 7 7 7 6 6 5 4 4 3 3 2 1 0 -1 -1 -1
0 1 -0 1 2 4 6 7 5 6 7 7 6 6 7 7 7 6 7 6 6 6 6 5 5 4 5 4 5 4 4 3 3 2 2 1 0 -0 -1 -2 -3 -4 -4

GFSMA_850_dewp_111.txt.gz
Dewpoint
9 11 11 12 12 11 11 11 9 8 8 8 8 9 9 9 9 8 9 10 9 9 10 7 5 3 1 7 8 8 7 5 3 -0 -0 -3 -4 -10 -15 -16 -15 -13 -12
8 9 10 11 11 11 11 11 10 9 8 8 8 8 10 10 9 9 9 10 10 9 10 9 8 5 1 8 8 7 4 3 2 2 -1 -3 -6 -12 -14 -14 -14 -13 -12
8 9 9 10 11 11 11 11 11 10 9 9 9 9 9 9 9 9 9 9 10 10 8 7 8 8 8 8 8 8 5 4 6 1 -4 -9 -11 -12 -12 -12 -12 -12 -11
8 9 9 9 10 11 11 11 11 11 10 10 9 10 9 10 9 9 9 9 10 10 8 7 8 8 8 8 8 8 7 4 3 2 -3 -10 -10 -10 -11 -11 -11 -10 -10
8 9 10 10 10 11 11 11 11 11 11 10 10 10 10 9 9 9 9 9 10 9 7 7 7 8 7 8 7 8 7 3 -1 6 -0 -10 -11 -8 -10 -10 -10 -9 -9
7 9 11 11 11 11 12 11 11 11 11 11 10 11 11 10 10 9 9 9 10 9 8 6 6 7 8 8 8 8 8 6 -2 0 -1 -7 -10 -9 -8 -9 -9 -8 -7
4 7 9 11 11 11 11 12 11 11 10 10 10 11 11 10 10 9 10 10 10 9 7 7 6 6 8 7 8 7 7 8 7 -0 -2 -10 -10 -8 -9 -8 -7 -7 -6
6 5 6 10 11 11 11 11 11 11 10 10 10 11 10 10 10 10 10 9 9 9 7 6 6 6 7 7 7 7 7 8 8 4 -2 -5 -9 -9 -8 -8 -7 -6 -4
9 7 6 8 11 12 12 12 11 11 11 10 10 11 10 10 10 10 9 10 8 8 7 6 5 6 6 7 7 7 6 7 8 7 3 1 -6 -7 -7 -7 -6 -5 -3
10 10 9 9 10 12 12 11 11 11 11 10 10 11 10 10 10 9 10 10 8 8 6 6 5 5 6 6 6 6 4 3 2 1 5 3 -1 -4 -4 -5 -4 -3 -2
11 11 11 11 10 10 10 11 11 10 10 10 10 10 10 10 9 9 9 9 8 8 7 7 6 6 5 5 5 5 5 5 2 -0 -1 -1 -2 3 3 -2 -2 -2 -1
10 10 12 12 12 11 10 10 10 11 10 10 10 10 10 10 10 9 9 8 8 7 7 7 7 6 6 6 6 6 4 3 3 5 6 5 2 -1 -0 1 0 -1 -1
10 9 10 11 11 11 11 10 10 10 10 10 10 10 10 10 10 9 8 9 8 8 7 7 7 6 6 6 6 6 5 4 5 5 6 6 5 4 1 -1 -2 -2 -2
9 8 8 10 11 11 11 11 10 10 10 10 10 10 10 10 10 9 8 7 8 8 7 7 7 6 6 6 6 6 6 6 5 5 5 5 5 5 4 2 0 -0 -1
10 10 10 10 10 11 11 11 10 10 9 10 10 10 10 10 10 9 8 8 7 8 7 5 7 6 6 6 6 6 5 5 6 6 6 5 3 3 3 2 2 1 2
10 11 11 11 11 11 11 11 11 10 10 10 9 9 10 10 10 9 8 6 6 5 6 4 5 6 5 5 6 6 5 5 5 5 5 5 3 2 2 3 3 5 5
9 11 11 11 10 11 11 11 10 9 8 9 9 10 10 10 10 9 8 7 7 6 6 5 5 5 5 6 6 6 5 5 5 6 6 6 6 5 4 6 6 5 4
9 10 11 11 11 10 7 9 10 8 9 9 9 10 10 10 9 9 9 8 7 8 8 8 6 6 6 6 6 6 5 6 6 5 6 5 6 5 6 5 5 5 5
10 11 12 11 10 9 7 10 9 9 9 9 9 10 10 10 9 9 8 8 8 8 7 7 6 6 6 6 6 5 6 6 6 6 5 5 6 5 4 5 5 6 6
11 11 12 11 10 7 10 9 9 8 9 9 9 10 10 9 10 9 8 9 9 7 8 8 7 8 7 7 7 7 7 7 6 6 6 6 4 4 5 7 7 8 8
11 12 11 10 8 9 8 8 8 9 9 9 9 9 9 9 9 9 9 8 8 7 7 8 8 8 7 7 6 6 6 6 7 7 6 6 6 8 8 8 8 7 7
10 10 10 9 8 9 9 8 8 8 9 9 9 9 9 9 9 9 8 8 8 8 8 9 8 8 7 7 7 7 6 7 7 6 6 7 8 8 7 7 7 6 6
9 9 9 9 9 9 9 9 9 9 9 9 9 9 9 8 8 8 9 9 9 9 8 8 8 8 8 8 8 8 7 7 6 6 6 7 7 6 6 4 5 4 5
3 7 7 7 8 8 8 8 8 9 8 9 8 9 8 9 9 8 9 8 8 8 8 8 8 8 7 7 7 6 6 6 6 7 6 6 5 4 3 2 1 1 1
2 1 1 2 4 7 8 8 8 8 8 8 8 8 8 8 8 8 8 8 8 8 8 8 8 7 7 7 7 7 7 7 7 6 5 5 3 1 -1 -1 -1 -1 -1
0 0 1 1 1 1 2 2 6 7 7 7 7 7 7 6 7 7 7 7 7 7 7 7 6 6 7 6 6 6 6 5 5 4 3 2 2 1 -0 -1 -2 -3 -3

GFSMA_850_dewp_114.txt.gz
Dewpoint
8 9 11 12 12 12 11 11 10 9 8 7 8 9 10 10 10 9 8 9 10 9 10 8 7 5 4 2 6 7 8 8 8 5 3 6 5 3 -4 -12 -14 -12 -11
8 8 10 11 12 12 11 11 10 9 8 8 8 8 10 10 10 9 9 9 10 10 10 10 9 9 8 6 8 8 8 8 8 6 2 4 2 -8 -15 -15 -14 -13 -12
8 9 9 9 10 11 12 11 11 10 9 8 8 8 8 9 10 10 10 9 10 10 10 9 9 9 9 7 7 8 7 7 7 4 3 -1 -3 -12 -14 -14 -13 -12 -11
7 9 9 9 9 10 12 11 11 11 10 9 9 9 9 9 9 9 10 10 10 10 10 9 8 9 8 8 8 8 7 7 7 6 1 -4 -9 -11 -11 -12 -11 -11 -11
6 8 8 8 9 10 11 11 11 11 11 11 10 10 9 10 10 10 10 10 10 10 9 10 8 8 8 8 8 8 7 7 8 7 5 -4 -9 -11 -11 -11 -11 -10 -10
5 7 8 9 9 10 11 11 11 11 11 11 11 11 10 10 10 9 9 10 10 9 10 9 8 7 8 8 7 7 7 7 7 7 7 -1 -8 -5 -9 -10 -10 -9 -8
5 7 8 9 10 10 10 11 11 11 11 11 11 11 10 10 10 10 9 9 10 9 10 9 7 6 7 7 7 7 7 7 7 6 8 6 -2 -7 -7 -9 -8 -8 -7
5 5 6 7 9 10 11 11 12 11 12 11 11 10 10 10 10 10 10 10 9 9 9 9 7 6 6 7 7 7 7 7 7 7 7 8 5 -1 -3 -8 -8 -7 -7
9 8 7 6 8 10 11 11 11 12 11 11 12 10 10 9 10 10 10 10 10 10 9 8 7 6 6 7 7 7 7 7 7 7 7 7 7 -2 -4 -6 -8 -7 -6
10 10 9 9 7 11 13 12 11 10 10 10 9 10 10 10 10 10 10 10 10 10 9 8 7 6 5 7 7 7 7 6 5 7 7 7 7 2 -1 -5 -6 -6 -5
10 10 10 10 9 10 13 11 10 10 10 9 8 9 9 9 10 9 10 10 9 9 9 8 7 5 4 6 6 7 7 7 6 4 4 7 7 7 5 -1 -2 -3 -3
8 9 11 10 10 10 11 11 11 11 10 9 9 9 10 10 10 10 9 9 9 9 9 8 7 6 5 5 5 5 6 6 6 6 4 2 4 7 7 7 4 -0 -1
8 8 9 10 11 11 11 11 11 11 11 10 9 9 9 10 10 9 10 9 9 9 9 8 8 7 6 6 6 6 6 6 6 5 4 5 6 6 5 2 3 2 3
9 9 9 9 11 10 10 11 11 10 10 10 9 9 9 9 10 10 10 10 9 9 8 7 7 7 6 6 6 6 6 6 5 4 5 6 6 6 6 5 4 2 0
10 11 10 10 10 11 10 10 10 10 10 10 9 9 9 10 10 10 10 10 9 9 8 8 8 7 6 6 5 6 7 6 6 6 5 6 6 6 5 5 5 4 3
9 9 10 11 11 11 10 10 10 10 10 10 9 9 9 10 10 10 10 10 9 9 8 8 8 6 4 5 6 6 6 6 6 6 6 6 6 6 5 4 3 3 3
11 11 11 11 11 11 11 11 10 10 10 10 9 9 9 9 9 9 9 9 9 9 8 8 7 5 4 6 6 6 6 7 6 6 6 6 7 7 6 5 5 5 6
12 11 10 10 10 11 11 11 10 10 10 10 10 8 10 9 10 10 9 9 9 9 8 6 6 6 5 5 6 6 6 7 7 7 7 6 7 7 7 6 6 5 5
12 12 11 9 9 10 12 11 12 10 8 10 8 9 9 9 9 9 9 9 9 8 7 7 7 7 8 5 7 7 7 6 5 5 5 7 6 6 5 5 5 5 5
10 11 11 10 10 10 11 11 10 7 9 9 8 9 9 9 10 10 9 9 9 8 8 7 8 7 7 8 7 7 7 6 6 6 6 7 6 5 5 5 5 4 4
9 10 10 11 11 11 11 10 8 9 9 8 8 9 9 9 9 9 9 9 9 8 8 7 7 8 7 7 7 6 6 7 7 7 7 6 6 6 6 5 5 7 7
9 9 9 9 9 10 9 8 9 9 8 8 8 8 8 8 9 9 9 9 9 8 8 8 8 8 7 7 6 7 7 8 7 7 7 7 7 6 6 6 7 8 8
5 6 6 8 8 7 9 9 9 9 8 8 9 9 9 9 9 9 9 9 8 9 9 8 7 7 7 7 8 8 7 7 7 7 7 7 7 6 6 6 6 6 6
3 3 4 4 5 6 8 8 8 8 9 9 9 9 8 9 9 9 8 9 8 8 8 8 8 8 8 8 8 8 8 8 8 7 7 6 6 5 4 2 3 3 3
1 1 1 2 3 3 3 5 6 7 7 8 8 8 8 8 8 8 8 8 8 8 8 8 8 8 8 8 8 8 7 7 7 6 6 6 4 2 0 -1 -1 -0 1
-0 -0 0 1 1 1 1 1 2 2 4 5 6 7 6 8 8 8 8 7 7 7 7 7 7 7 7 7 7 7 7 7 7 5 4 3 1 0 -2 -3 -4 -3 -3

GFSMA_850_dewp_117.txt.gz
Dewpoint
9 9 10 12 12 12 12 12 10 9 9 8 8 9 11 10 10 9 9 9 8 10 10 9 8 8 5 5 2 4 7 8 8 7 7 7 5 -3 -7 -13 -14 -12 -11
8 8 10 11 12 12 12 11 10 10 9 8 8 8 10 11 11 10 10 9 9 9 10 11 10 9 8 6 7 8 8 8 7 7 7 7 6 2 -6 -13 -14 -12 -11
8 8 9 11 12 12 12 11 11 11 9 8 8 8 8 9 10 10 10 10 9 9 10 11 10 9 9 8 8 8 7 7 7 7 6 7 6 -3 -9 -10 -12 -12 -11
6 8 8 10 11 12 12 12 11 11 10 9 8 8 8 8 8 10 10 10 10 9 10 11 9 9 9 8 8 8 8 7 7 7 7 7 6 -2 -7 -12 -12 -12 -11
4 7 8 9 10 11 12 12 12 11 11 10 10 9 9 9 9 9 9 10 10 10 10 10 10 9 8 8 7 7 7 7 7 7 7 7 3 -1 -9 -12 -11 -11 -11
1 6 8 9 9 10 11 12 12 12 11 11 11 10 10 10 10 9 10 10 10 10 10 10 9 9 8 8 7 7 7 7 7 7 7 7 3 -3 -9 -9 -10 -10 -10
1 2 7 9 9 10 10 10 12 12 11 11 11 11 10 11 10 10 10 9 9 10 10 10 10 9 7 7 7 7 7 7 7 7 7 7 7 -0 -2 -3 -8 -9 -8
3 2 3 7 9 10 10 10 11 11 11 11 11 11 10 10 10 10 9 9 10 9 10 10 9 8 7 7 7 6 7 7 7 7 7 7 7 4 1 1 -4 -7 -8
5 5 3 5 8 9 10 10 11 11 11 11 10 10 10 9 9 8 8 9 10 10 10 10 9 9 7 6 7 6 7 6 7 7 7 7 7 7 7 6 4 -5 -7
7 7 5 5 5 8 9 10 11 11 11 11 10 10 10 9 10 9 9 8 9 9 9 10 10 9 7 5 6 7 7 6 7 7 7 7 7 7 6 4 7 2 -6
9 9 7 7 8 7 7 8 11 11 12 11 10 10 9 9 9 10 9 9 9 10 9 9 10 9 8 5 5 6 7 7 6 6 6 7 7 7 7 4 4 -1 -4
10 10 8 8 9 9 9 8 10 11 11 10 10 10 9 9 9 10 10 9 8 9 9 9 10 9 8 6 3 5 6 6 6 7 6 6 6 7 7 7 7 6 5
11 10 8 8 8 9 10 10 10 11 11 11 10 10 10 9 9 9 9 10 9 9 9 8 9 9 8 7 4 3 4 6 6 7 7 6 5 4 6 6 7 7 7
10 11 12 9 8 9 10 11 10 10 11 10 11 11 10 9 8 8 10 10 9 9 9 9 8 9 9 6 5 4 5 5 6 6 6 7 6 4 5 5 6 5 4
12 10 10 10 9 10 10 11 11 10 10 10 10 10 10 9 9 9 9 9 10 9 9 9 9 8 9 6 6 5 6 6 6 6 6 6 4 5 6 6 7 6 6
12 12 9 9 10 10 10 11 11 10 10 10 11 11 10 9 9 9 9 10 10 10 9 9 8 9 8 6 6 6 6 5 7 7 6 5 5 6 6 6 7 7 7
11 10 10 11 9 10 9 11 12 11 10 10 10 10 10 9 9 9 9 9 9 9 9 9 9 9 8 7 8 7 6 6 6 7 7 7 6 6 7 7 7 6 6
11 11 11 11 11 10 10 10 11 11 11 10 10 10 9 9 9 9 9 9 9 9 9 9 9 9 8 8 6 6 6 7 7 7 7 7 7 7 7 7 7 6 5
10 11 10 11 11 12 11 11 11 11 11 11 10 10 9 9 9 9 9 9 9 9 9 9 9 9 9 8 5 3 6 7 7 7 7 7 7 6 7 7 7 6 6
10 10 10 10 10 10 11 11 11 11 11 11 10 10 9 8 8 9 9 9 9 9 9 9 8 8 8 7 7 5 6 7 7 7 7 7 6 7 7 6 6 6 6
9 9 9 9 9 9 10 10 10 10 11 11 9 8 8 8 8 9 9 9 9 9 8 8 8 8 8 7 7 7 6 7 7 7 6 6 6 5 6 6 6 6 5
6 8 8 8 9 9 9 10 10 9 9 9 8 8 8 8 8 8 9 9 9 9 9 9 8 7 7 7 8 8 6 8 8 7 6 6 6 6 7 7 6 6 6
4 4 5 5 5 6 7 9 9 9 9 9 8 8 8 8 8 8 8 9 9 9 9 9 8 8 7 7 7 7 7 7 7 6 6 7 7 7 6 7 6 6 6
1 2 2 3 3 4 5 6 7 8 8 8 9 8 8 8 8 9 9 9 8 8 8 8 8 8 8 7 8 8 7 7 7 7 7 6 6 6 5 4 4 5 5
0 -0 0 1 1 1 2 3 4 5 6 6 6 7 8 8 8 8 8 9 8 8 8 8 8 8 8 8 8 8 8 8 7 7 7 6 5 3 1 1 0 1 1
-2 -2 -1 -1 -1 -1 -1 0 2 3 3 3 3 3 4 7 7 7 7 7 7 7 8 8 8 8 8 8 8 8 7 7 7 6 4 3 4 1 -3 -4 -3 -2 -2